Detroit Metro, MI

8:36 AM EDT on May 22, 2018 (GMT -0400)
Detroit Metro Wayne County

Weather History for KDTW - March, 2014

Change the Weather History Date:

Friday, March 7, 2014

  Actual Average Record
Temperature  
Mean Temperature 27 °F 34 °F  
Max Temperature 44 °F 42 °F 76 °F (2000)
Min Temperature 10 °F 26 °F 2 °F (1913)
Degree Days  
Heating Degree Days 38 31  
Month to date heating degree days 331 226  
Since 1 July heating degree days 5581 4779  
Cooling Degree Days 0 0  
Month to date cooling degree days 0 0  
Year to date cooling degree days 0 0  
Moisture  
Dew Point 19 °F    
Average Humidity 67    
Maximum Humidity 84    
Minimum Humidity 49    
Precipitation  
Precipitation 0.00 in 0.07 in 1.06 in (2009)
Month to date precipitation 0.38 0.50  
Year to date precipitation 6.12 4.48  
Snow  
Snow 0.00 in 0.30 in 4.00 in (1885)
Month to date snowfall 4.9 2.1  
Since 1 July snowfall 84.1 36.0  
Snow Depth 14.00 in    
Sea Level Pressure  
Sea Level Pressure 30.05 in    
Wind  
Wind Speed 4 mph (South)    
Max Wind Speed 13 mph    
Max Gust Speed 16 mph    
Visibility 9 miles    
Events      
T = Trace of Precipitation, MM = Missing Value Source: NWS Daily Summary

Daily Weather History Graph

Daily Weather History Graph

Search for Another Location

Airport or City:

Astronomy

Mar. 07, 2014 Rise Set
Actual Time 6:58 AM EST 6:30 PM EST
Civil Twilight 6:30 AM EST 6:58 PM EST
Nautical Twilight 5:58 AM EST 7:31 PM EST
Astronomical Twilight 5:25 AM EST 8:03 PM EST
Moon 10:44 AM EST (3/7) 12:41 AM EST (3/7)
Length of Visible Light 12h 27m
Length of Day
11h 31m
Waxing Crescent, 42% of the Moon is Illuminated
Mar 7
Waxing Crescent
Mar 8
First Quarter
Mar 16
Full
Mar 23
Last Quarter
Mar 30
New

Hourly Weather History & Observations

Time (EST) Temp. Windchill Dew Point Humidity Pressure Visibility Wind Dir Wind Speed Gust Speed Precip Events Conditions
12:53 AM 17.1 °F - 10.0 °F 74% 30.17 in 10.0 mi Calm Calm - N/A   Partly Cloudy
1:53 AM 17.1 °F - 10.0 °F 74% 30.15 in 10.0 mi Calm Calm - N/A   Partly Cloudy
2:53 AM 16.0 °F - 10.0 °F 77% 30.14 in 10.0 mi Calm Calm - N/A   Partly Cloudy
3:53 AM 10.9 °F - 7.0 °F 84% 30.12 in 10.0 mi Calm Calm - N/A   Partly Cloudy
4:53 AM 12.9 °F - 9.0 °F 84% 30.11 in 9.0 mi Calm Calm - N/A   Partly Cloudy
5:53 AM 12.0 °F - 7.0 °F 80% 30.12 in 8.0 mi Calm Calm - N/A   Partly Cloudy
6:53 AM 14.0 °F - 7.0 °F 74% 30.12 in 7.0 mi Calm Calm - N/A   Partly Cloudy
7:53 AM 17.1 °F - 12.0 °F 81% 30.12 in 7.0 mi Calm Calm - N/A   Partly Cloudy
8:53 AM 21.0 °F - 15.1 °F 78% 30.13 in 7.0 mi Calm Calm - N/A   Partly Cloudy
9:53 AM 27.0 °F - 19.0 °F 72% 30.12 in 10.0 mi Calm Calm - N/A   Partly Cloudy
10:53 AM 30.9 °F - 19.9 °F 64% 30.10 in 10.0 mi Calm Calm - N/A   Partly Cloudy
11:53 AM 36.0 °F 29.6 °F 21.9 °F 57% 30.08 in 10.0 mi South 8.1 mph - N/A   Clear
12:53 PM 37.9 °F 32.7 °F 23.0 °F 55% 30.05 in 10.0 mi SSE 6.9 mph - N/A   Clear
1:53 PM 41.0 °F 36.4 °F 24.1 °F 51% 30.01 in 10.0 mi South 6.9 mph - N/A   Clear
2:53 PM 42.1 °F 38.4 °F 25.0 °F 51% 29.99 in 10.0 mi South 5.8 mph - N/A   Partly Cloudy
3:53 PM 42.1 °F 37.1 °F 26.1 °F 53% 29.98 in 10.0 mi South 8.1 mph - N/A   Scattered Clouds
4:53 PM 42.1 °F 35.7 °F 25.0 °F 51% 29.97 in 10.0 mi South 11.5 mph - N/A   Mostly Cloudy
5:53 PM 39.0 °F 32.8 °F 26.1 °F 60% 29.96 in 10.0 mi South 9.2 mph - N/A   Mostly Cloudy
6:53 PM 37.9 °F 32.1 °F 26.1 °F 62% 29.96 in 10.0 mi South 8.1 mph - N/A   Mostly Cloudy
7:53 PM 37.0 °F 31.0 °F 27.0 °F 67% 29.96 in 10.0 mi South 8.1 mph - N/A   Mostly Cloudy
8:53 PM 37.9 °F 32.7 °F 25.0 °F 60% 29.96 in 10.0 mi SSW 6.9 mph - N/A   Overcast
9:53 PM 36.0 °F 30.3 °F 25.0 °F 64% 29.95 in 10.0 mi South 6.9 mph - N/A   Overcast
10:53 PM 35.1 °F 31.0 °F 25.0 °F 67% 29.95 in 9.0 mi SSW 4.6 mph - N/A   Mostly Cloudy
11:53 PM 35.1 °F 30.1 °F 26.1 °F 70% 29.94 in 8.0 mi SSW 5.8 mph - N/A   Mostly Cloudy